Flag for Brazil Weather past 2 weeks in Foz do Iguaçu, Paraná, Brazil

Now
84 °F

Partly sunny.


Feels Like: 90 °F
Forecast: 68 / 85 °F
Wind: 3 mph from Northeast

Location: Foz Do Iguacu Aeroporto

Current Time: Dec 18, 2014 at 2:47:10 PM

Latest Report: Dec 18, 2014 at 2:00 PM


Visibility: N/A

Pressure: 29.83 "Hg

Humidity: 66%

Dew point: 72 °F

Location of Foz do IguaçuLocation

Historic Weather in Foz do Iguaçu — Graph

°F

Foz do Iguaçu temperature yesterday

Maximum temperature yesterday: 79 °F (at 12:00 AM)
Minimum temperature yesterday: 70 °F (at 1:00 PM)
Average temperature yesterday: 73 °F

Past Weeks' High & Low Weather Summary

 TemperatureHumidityPressure
High93 °F (Dec 7, 2:00 PM)100% (Dec 8, 4:00 PM)30.01 "Hg (Dec 8, 4:00 PM)
Low37 °F (Dec 8, 4:00 PM)38% (Dec 4, 7:00 PM)29.68 "Hg (Dec 9, 6:00 PM)
Average77 °F77%29.86 "Hg
* Reported Dec 3 1:00 PM — Dec 18 1:00 PM, Foz do Iguaçu, Weather by CustomWeather, © 2014

Note: Actual official high and low records may vary slightly from our data, if they occured in-between our weather recording intervals... More about our weather records

Advertising

Foz do Iguaçu weather history for previous 24 hours

 ConditionsComfort  
Time TempWeatherWind HumidityBarometerVisibility
1:00 PM
Dec 18
82 °FPartly sunny.2 mph70%29.86 "HgN/A
12:00 PM81 °FPartly sunny.2 mph74%29.89 "HgN/A
11:00 AM79 °FScattered clouds.5 mph74%29.89 "HgN/A
10:00 AM75 °FScattered clouds.5 mph83%29.89 "HgN/A
9:00 AM70 °FScattered clouds.5 mph100%29.89 "HgN/A
8:00 AM68 °FFog.2 mph100%N/A1 mi
7:00 AM66 °FLight fog.No wind94%29.86 "HgN/A
6:00 AM66 °FClear.No wind100%29.83 "Hg10 mi
5:00 AM66 °FClear.2 mph100%29.83 "Hg10 mi
4:00 AM68 °FClear.3 mph94%29.80 "Hg10 mi
3:00 AM68 °FPassing clouds.5 mph94%29.83 "HgN/A
2:00 AM70 °FPassing clouds.7 mph94%29.83 "HgN/A
1:00 AM70 °FPassing clouds.7 mph94%29.86 "HgN/A
12:00 AM70 °FPassing clouds.6 mph94%29.89 "HgN/A
11:00 PM
Dec 17
70 °FPartly cloudy.7 mph94%29.89 "HgN/A
10:00 PM70 °FPartly cloudy.9 mph100%29.89 "Hg4 mi
9:00 PM70 °FPassing clouds.5 mph94%29.86 "HgN/A
8:00 PM72 °FPartly sunny.7 mph94%29.80 "Hg5 mi
7:00 PM72 °FPartly sunny.3 mph94%29.80 "HgN/A
6:00 PM72 °FMore clouds than sun.6 mph94%29.83 "HgN/A
5:00 PM70 °FLight rain. More clouds than sun.3 mph94%29.86 "Hg5 mi
4:00 PM70 °FThunderstorms. Fog.6 mph94%29.89 "Hg2 mi
3:00 PM70 °FThunderstorms. Fog.5 mph94%29.95 "Hg2 mi
2:00 PM70 °FThunderstorms. Fog.2 mph100%29.95 "Hg2 mi
Weather by CustomWeather, © 2014

See weather overviewHow to use our weather pages